Location: Unspecified
(0.0000°N, 0.0000°E)
Time: 06:37:24
(UTC+00:00)

SR - All Passes

Search period start: 10 February 2016 00:00
Search period end: 20 February 2016 00:00
Orbit: 575 x 884 km, 66.7° (Epoch: 09 February)

Date Brightness Start Highest point End Pass type
(mag) Time Alt. Az. Time Alt. Az. Time Alt. Az.
10 Feb - 03:39:40 10° N 03:44:22 56° ENE 03:48:42 10° SSE visible
10 Feb - 16:04:21 10° SSW 16:09:37 57° WNW 16:15:15 10° N daylight
11 Feb - 02:51:41 10° NNE 02:55:10 20° ENE 02:58:28 10° ESE visible
11 Feb - 04:33:47 10° WNW 04:36:56 18° WSW 04:39:58 10° SSW visible
11 Feb - 15:15:15 10° S 15:20:29 58° ESE 15:26:06 10° NNE daylight
12 Feb - 03:43:18 10° NNW 03:47:54 51° WSW 03:52:10 10° S visible
12 Feb - 14:27:12 10° SSE 14:31:25 24° ESE 14:35:52 10° ENE daylight
12 Feb - 16:08:53 10° WSW 16:13:17 25° WNW 16:17:55 10° NNW daylight
13 Feb - 02:54:10 10° N 02:58:48 53° ENE 03:03:06 10° SSE night (unlit)
13 Feb - 15:18:46 10° SSW 15:24:04 60° WNW 15:29:45 10° N daylight
14 Feb - 02:06:15 10° NNE 02:09:35 19° ENE 02:12:45 10° ESE night (unlit)
14 Feb - 03:48:08 10° WNW 03:51:23 19° WSW 03:54:29 10° SSW night (unlit)
14 Feb - 14:29:42 10° S 14:34:57 55° ESE 14:40:33 10° NNE daylight
14 Feb - 16:16:09 10° WNW 16:17:01 10° WNW 16:17:53 10° WNW daylight
15 Feb - 02:57:44 10° NNW 03:02:19 54° WSW 03:06:36 10° S night (unlit)
15 Feb - 13:41:43 10° SSE 13:45:53 23° ESE 13:50:14 10° ENE daylight
15 Feb - 15:23:13 10° SW 15:27:44 26° WNW 15:32:28 10° NNW daylight
16 Feb - 02:08:39 10° N 02:13:13 49° ENE 02:17:28 10° SE night (unlit)
16 Feb - 14:33:10 10° SSW 14:38:32 63° WNW 14:44:14 10° N daylight
17 Feb - 01:20:50 10° NNE 01:24:00 18° ENE 01:27:01 10° ESE night (unlit)
17 Feb - 03:02:28 10° WNW 03:05:47 20° WSW 03:08:59 10° SSW night (unlit)
17 Feb - 13:44:09 10° S 13:49:24 53° ESE 13:55:00 10° NNE daylight
17 Feb - 15:29:56 10° W 15:31:27 11° WNW 15:32:59 10° NW daylight
18 Feb - 02:12:09 10° NNW 02:16:44 57° WSW 02:21:01 10° S night (unlit)
18 Feb - 12:56:13 10° SSE 13:00:19 22° ESE 13:04:36 10° ENE daylight
18 Feb - 14:37:33 10° SW 14:42:09 28° WNW 14:47:00 10° NNW daylight
19 Feb - 01:23:07 10° N 01:27:37 46° ENE 01:31:49 10° SE night (unlit)
19 Feb - 13:47:34 10° SSW 13:52:58 67° WNW 13:58:43 10° NNE daylight
